This is the latest recevied weather packets stored in our database for station/object W2SRH. If no packets are shown the sender has not sent any weather packets the latest 10 day(s).
| Time | Temp. | Humidity | Pressure | Rain* | Wind** | Luminosity | Snow |
|---|---|---|---|---|---|---|---|
| 1777866543 | 11.11° C | 41% | 1005.1 hPa | 0 mm | 0.45 m/s, 265° | - | - |
| 1777865944 | 11.11° C | 41% | 1005.1 hPa | 0 mm | 0.45 m/s, 282° | - | - |
| 1777865345 | 11.11° C | 41% | 1005.1 hPa | 0 mm | 0.45 m/s, 271° | - | - |
| 1777864744 | 11.11° C | 41% | 1004.9 hPa | 0 mm | 0 m/s | - | - |
| 1777864144 | 11.11° C | 40% | 1005 hPa | 0 mm | 0.45 m/s, 290° | - | - |
| 1777863544 | 11.11° C | 40% | 1005 hPa | 0 mm | 0.45 m/s, 267° | - | - |
| 1777862944 | 11.11° C | 40% | 1005 hPa | 0 mm | 0.45 m/s, 264° | - | - |
| 1777862344 | 11.67° C | 40% | 1004.9 hPa | 0 mm | 0 m/s | - | - |
| 1777861744 | 11.67° C | 39% | 1005.1 hPa | 0 mm | 0.45 m/s, 261° | - | - |
| 1777861143 | 11.67° C | 39% | 1005 hPa | 0 mm | 0.45 m/s, 269° | - | - |
| 1777860545 | 11.67° C | 39% | 1004.9 hPa | 0 mm | 0.45 m/s, 257° | - | - |
| 1777859943 | 11.67° C | 39% | 1005.1 hPa | 0 mm | 0.45 m/s, 271° | - | - |
| 1777859343 | 11.67° C | 38% | 1004.8 hPa | 0 mm | 0 m/s | - | - |
| 1777858744 | 11.67° C | 37% | 1004.8 hPa | 0 mm | 0.45 m/s, 260° | - | - |
| 1777858144 | 11.67° C | 37% | 1004.8 hPa | 0 mm | 0 m/s | - | - |
| 1777857543 | 12.22° C | 37% | 1004.6 hPa | 0 mm | 0 m/s | - | - |
| 1777856943 | 12.22° C | 35% | 1004.5 hPa | 0 mm | 0.45 m/s, 275° | - | - |
| 1777856343 | 12.78° C | 35% | 1004.3 hPa | 0 mm | 0.45 m/s, 281° | - | - |
| 1777855744 | 12.78° C | 34% | 1004.1 hPa | 0 mm | 0 m/s | - | - |
| 1777855144 | 12.78° C | 34% | 1004 hPa | 0 mm | 0 m/s | - | - |
| 1777854545 | 13.33° C | 33% | 1003.9 hPa | 0 mm | 0.45 m/s, 279° | - | - |
| 1777853944 | 13.33° C | 32% | 1003.8 hPa | 0 mm | 0.45 m/s, 265° | - | - |
| 1777853344 | 13.89° C | 31% | 1003.8 hPa | 0 mm | 0 m/s | - | - |
| 1777852744 | 13.89° C | 30% | 1003.7 hPa | 0 mm | 0.45 m/s, 300° | - | - |
| 1777852144 | 14.44° C | 30% | 1003.6 hPa | 0 mm | 0.45 m/s, 265° | - | - |
* Rain latest hour (hover to see other rain measurements)
** Current wind speed in m/s (hover to see current wind gust speed)